Weather in Viesite

Latvia     56°20′41″N   25°33′11″E
temp.,
°C
wind,
m/s
gust,
m/s
humid.,
%
clouds,
%
prec.,
mm/h
press.,
hPa
HPBL,
m
21 april, wed
wed2100:00+5ese279491 0.0 1012185
03:00+4sse249362 0.0 1011103
06:00+3sse229640 0.0 100938
09:00+8s237847 0.0 1008380
12:00+12sw236234 0.6 10051134
15:00+13w4658100 1.9 10041556
18:00+13wsw46475 0.1 10031938
21:00+9wsw41262100 0.1 1004395
22 april, thu
thu2200:00+6sw31079100 0.0 1005278
03:00+4sw3108350 0.0 1006287
06:00+4sw3108853 0.0 1006365
09:00+4sw379599 0.2 1007567
12:00+8sw5852100 0.1 10071746
15:00+10sw5938100 0.1 10062545
18:00+8sw6105847 0.3 10061636
21:00+4sw4107925 0.4 1007719
23 april, fri
fri2300:00+2sw5108859 0.1 1007830
03:00+2sw51080100 0.1 10061241
06:00+1sw51094100 0.3 1006878
09:00+2wsw41097100 1.3 1006674
12:00+5w5773100 1.0 10081385
15:00+6w5870100 2.1 10101648
18:00+4wnw4879100 1.2 10111167
21:00+1w259388 1.4 1012173
24 april, sat
sat2400:00+1wsw41088100 0.0 1012649
03:000wsw51198100 0.9 1010696
06:00+1w51194100 0.6 1011921
09:00+1wnw61296100 0.9 1011866
12:00+4wnw61177100 0.8 10111479
15:00+5wnw61174100 1.6 10111641
18:00+4w6117799 0.6 10111276
21:00+1w4997100 0.8 1012765
25 april, sun
sun2500:00+2wnw41097100 0.3 1011844
03:00+1wnw51197100 0.5 1011873
06:000w51297100 0.5 1011858
09:00+1wnw6139599 1.6 1011912
12:00+3wnw6118395 0.8 10121285
15:00+4wnw61179100 1.7 10121520
18:00+3wnw61184100 0.9 10131184
21:000wnw4109060 1.0 1014708